Home   Weather   Fort William   Past weeks
Flag for United Kingdom

Past Weather in Fort William, Scotland, United Kingdom — Yesterday and Last 2 Weeks

Now
33 °F

Chilly.


Feels Like: 33 °F
Forecast: 47 / 44 °F
Wind: 1 mph from Southeast

Location: Tulloch Bridge

Current Time: Oct 21, 2019 at 1:11:41 am

Latest Report: Oct 21, 2019 at 12:00 am


Visibility: 19 mi

Pressure: 30.30 "Hg

Humidity: 96%

Dew Point: 32 °F

Location of Fort WilliamLocation

Past Weather in Fort William — Graph

°F

Fort William Temperature Yesterday

Maximum temperature yesterday: 46 °F (at 4:00 pm)
Minimum temperature yesterday: 34 °F (at 10:00 pm)
Average temperature yesterday: 42 °F

High & Low Weather Summary for the Past Weeks

 TemperatureHumidityPressure
High56 °F (Oct 7, 2:00 pm)100% (Oct 13, 5:00 am)30.30 "Hg (Oct 13, 5:00 am)
Low33 °F (Oct 21, 12:00 am)63% (Oct 15, 4:00 pm)29.18 "Hg (Oct 8, 3:00 pm)
Average47 °F86%29.55 "Hg
* Reported Oct 6 12:00 am — Oct 21 12:00 am, Fort William. Weather by CustomWeather, © 2019

Note: Actual official high and low records may vary slightly from our data, if they occured in-between our weather recording intervals... More about our weather records

Advertising

Fort William Weather History for the Previous 24 Hours

Scroll right to see more
 ConditionsComfort  
Time TempWeatherWind HumidityBarometerVisibility
12:00 am
Mon, Oct 21
33 °FChilly.1 mph96%30.30 "Hg19 mi
11:00 pm
Sun, Oct 20
35 °FChilly.2 mph99%30.29 "Hg31 mi
10:00 pm34 °FChilly.1 mph98%30.27 "Hg28 mi
9:00 pm35 °FChilly.1 mph92%30.25 "Hg31 mi
8:00 pm40 °FChilly.5 mph85%30.23 "Hg31 mi
7:00 pm42 °FQuite cool.2 mph81%30.22 "Hg31 mi
6:00 pm43 °FQuite cool.7 mph79%30.20 "Hg31 mi
5:00 pm45 °FCool.10 mph68%30.17 "Hg31 mi
4:00 pm46 °FCool.8 mph66%30.15 "Hg25 mi
3:00 pm45 °FLight freezing rain. Cloudy.9 mph72%30.14 "Hg28 mi
2:00 pm44 °FLight freezing rain. Cloudy.14 mph76%30.13 "Hg25 mi
1:00 pm44 °FQuite cool.8 mph75%30.11 "Hg31 mi
12:00 pm44 °FQuite cool.12 mph76%30.10 "Hg22 mi
11:00 am43 °FRain showers. Cloudy.10 mph80%30.09 "Hg22 mi
10:00 am42 °FQuite cool.10 mph85%30.06 "Hg31 mi
9:00 am42 °FQuite cool.10 mph82%30.04 "Hg25 mi
8:00 am41 °FQuite cool.8 mph87%30.02 "Hg22 mi
7:00 am41 °FQuite cool.12 mph83%30.00 "Hg25 mi
6:00 am42 °FQuite cool.13 mph83%29.97 "Hg28 mi
5:00 am40 °FRain showers. Overcast.13 mph84%29.95 "Hg25 mi
4:00 am42 °FQuite cool.16 mph76%29.91 "Hg31 mi
3:00 am42 °FQuite cool.9 mph78%29.92 "Hg28 mi
2:00 am43 °FQuite cool.16 mph78%29.90 "Hg22 mi
1:00 am43 °FQuite cool.13 mph79%29.89 "Hg22 mi
Weather by CustomWeather, © 2019

See weather overview